Weather History for St. Cloud, MN

Change the Weather History Date:

Friday, December 9, 2011

  Actual Average Record
Temperature  
Mean Temperature 8 °F 18 °F  
Max Temperature 17 °F 26 °F 58 °F (1939)
Min Temperature -2 °F 9 °F -20 °F (1977)
Degree Days  
Heating Degree Days 57 47  
Month to date heating degree days 419 409  
Since 1 July heating degree days 2018 2334  
Cooling Degree Days 0 0  
Month to date cooling degree days 0 0  
Year to date cooling degree days 634 465  
Moisture  
Dew Point -3 °F    
Average Humidity 62    
Maximum Humidity 87    
Minimum Humidity 37    
Precipitation  
Precipitation 0.00 in 0.03 in 0.87 in (2012)
Month to date precipitation T 0.27  
Year to date precipitation 27.67 27.18  
Snow  
Snow 0.00 in 0.30 in 11.00 in (2012)
Month to date snowfall T 2.8  
Since 1 July snowfall 3.9 12.0  
Snow Depth 0.00 in    
Sea Level Pressure  
Sea Level Pressure 30.32 in    
Wind  
Wind Speed 8 mph (West)    
Max Wind Speed 17 mph    
Max Gust Speed 21 mph    
Visibility 10 miles    
Events      
T = Trace of Precipitation, MM = Missing Value Source: NWS Daily Summary

Daily Weather History Graph

Daily Weather History Graph

Search for Another Location

Airport:

Trip Planner

Search our weather history database for the weather conditions in past years. The results will help you decide how hot, cold, wet, or windy it might be!

Date:

Astronomy

Dec. 09, 2011 Rise Set
Actual Time 7:44 AM CST 4:32 PM CST
Civil Twilight 7:10 AM CST 5:06 PM CST
Nautical Twilight 6:32 AM CST 5:44 PM CST
Astronomical Twilight 5:56 AM CST 6:19 PM CST
Moon 3:56 PM CST (12/9) 6:52 AM CST (12/9)
Length of Visible Light 9h 56m
Length of Day
8h 48m
Waxing Gibbous, 99% of the Moon is Illuminated
Dec 9
Waxing Gibbous
Dec 10
Full
Dec 17
Last Quarter
Dec 24
New
Jan 1
First Quarter

Hourly Weather History & Observations

Time (CST) Temp. Windchill Dew Point Humidity Pressure Visibility Wind Dir Wind Speed Gust Speed Precip Events Conditions
12:53 AM 10.0 °F -4.5 °F 1.0 °F 67% 30.24 in 10.0 mi West 11.5 mph - N/A   Clear
1:53 AM 8.6 °F -5.5 °F -0.4 °F 67% 30.15 in 10.0 mi West 10.4 mph - N/A   Clear
2:53 AM 6.1 °F -4.3 °F -0.9 °F 73% 30.27 in 10.0 mi West 5.8 mph - N/A   Clear
3:53 AM 3.9 °F -6.9 °F -0.9 °F 80% 30.27 in 10.0 mi WSW 5.8 mph - N/A   Clear
4:53 AM 3.0 °F -8.0 °F -2.0 °F 80% 30.28 in 10.0 mi West 5.8 mph - N/A   Clear
5:53 AM 1.0 °F - -2.9 °F 83% 30.30 in 10.0 mi Calm Calm - N/A   Clear
6:53 AM -0.4 °F -12.0 °F -5.8 °F 78% 30.22 in 10.0 mi WSW 5.8 mph - N/A   Clear
7:53 AM - - - N/A% 30.24 in 10.0 mi WSW 5.8 mph - N/A   Clear
8:53 AM - - - N/A% 30.26 in - North - - N/A   Unknown
9:53 AM 10.4 °F -2.4 °F -0.4 °F 62% - 10.0 mi West 9.2 mph - N/A   Clear
10:53 AM 12.0 °F -2.0 °F -2.0 °F 53% 30.38 in 10.0 mi West 11.5 mph - N/A   Clear
11:53 AM 14.0 °F -0.2 °F -2.9 °F 47% 30.38 in 10.0 mi West 12.7 mph - N/A   Clear
12:53 PM 15.8 °F 4.2 °F -2.2 °F 45% 30.28 in 10.0 mi West 9.2 mph - N/A   Clear
1:53 PM 16.0 °F 3.6 °F -4.0 °F 41% 30.37 in 10.0 mi West 10.4 mph 20.7 mph N/A   Clear
2:53 PM 17.1 °F 2.5 °F -5.1 °F 37% 30.38 in 10.0 mi West 15.0 mph 20.7 mph N/A   Clear
3:53 PM 16.0 °F 3.6 °F -5.1 °F 39% 30.39 in 10.0 mi West 10.4 mph - N/A   Clear
4:53 PM 12.9 °F 1.6 °F -5.1 °F 45% 30.40 in 10.0 mi West 8.1 mph - N/A   Clear
5:53 PM 9.0 °F -2.2 °F -5.1 °F 53% 30.43 in 10.0 mi West 6.9 mph - N/A   Clear
6:53 PM 9.0 °F -3.2 °F -4.0 °F 56% 30.44 in 10.0 mi WSW 8.1 mph - N/A   Clear
7:53 PM 8.1 °F -3.2 °F -4.0 °F 58% 30.33 in 10.0 mi WSW 6.9 mph - N/A   Clear
8:53 PM 7.0 °F -3.3 °F -4.0 °F 61% 30.32 in 10.0 mi WSW 5.8 mph - N/A   Clear
9:53 PM 6.1 °F -0.9 °F -4.0 °F 63% 30.31 in 10.0 mi SW 3.5 mph - N/A   Clear
10:53 PM 3.0 °F -8.0 °F -5.1 °F 69% 30.41 in 10.0 mi South 5.8 mph - N/A   Clear
11:53 PM 1.9 °F - -5.1 °F 72% 30.40 in 10.0 mi North - - N/A   Clear